Weather History for Pompano Beach, FL

Change the Weather History Date:

Sunday, July 21, 2013

  Actual Average Record
Temperature  
Mean Temperature 44 °F -  
Max Temperature 88 °F 91 °F 96 °F (1981)
Min Temperature 0 °F 74 °F 0 °F (2013)
Degree Days  
Heating Degree Days 22    
Moisture  
Dew Point 60 °F    
Average Humidity 82    
Maximum Humidity 96    
Minimum Humidity 72    
Precipitation  
Precipitation 0.00 in - - ()
Sea Level Pressure  
Sea Level Pressure 30.12 in    
Wind  
Wind Speed 4 mph (SE)    
Max Wind Speed 16 mph    
Max Gust Speed -    
Visibility 10 miles    
Events      
Averages and records for this station are not official NWS values.
T = Trace of Precipitation, MM = Missing Value Source: NWS Daily Summary

Daily Weather History Graph

Daily Weather History Graph

Search for Another Location

Airport:

Trip Planner

Search our weather history database for the weather conditions in past years. The results will help you decide how hot, cold, wet, or windy it might be!

Date:

Astronomy

Jul. 21, 2013 Rise Set
Actual Time 6:40 AM EDT 8:12 PM EDT
Civil Twilight 6:15 AM EDT 8:38 PM EDT
Nautical Twilight 5:44 AM EDT 9:08 PM EDT
Astronomical Twilight 5:13 AM EDT 9:40 PM EDT
Moon 7:13 PM EDT (7/21) 5:22 AM EDT (7/21)
Length of Visible Light 14h 23m
Length of Day
13h 32m
Waxing Gibbous, 98% of the Moon is Illuminated
Jul 21
Waxing Gibbous
Jul 22
Full
Jul 29
Last Quarter
Aug 6
New
Aug 14
First Quarter

Hourly Weather History & Observations

Time (EDT) Temp. Windchill Dew Point Humidity Pressure Visibility Wind Dir Wind Speed Gust Speed Precip Events Conditions
12:53 AM 81.0 °F - 75.9 °F 85% 30.10 in 10.0 mi South 4.6 mph - N/A   Unknown
1:53 AM 81.0 °F - 73.9 °F 79% 30.09 in - Calm Calm - N/A   Unknown
2:53 AM -0.0 °F - -0.9 °F 96% 30.09 in - Calm Calm - N/A   Unknown
3:53 AM 78.1 °F - 75.0 °F 90% 30.08 in - Calm Calm - N/A   Unknown
4:53 AM -0.0 °F - -0.9 °F 96% 30.08 in - Calm Calm - N/A   Unknown
5:53 AM -0.0 °F -7.9 °F -0.9 °F 96% 30.09 in - South 3.5 mph - N/A   Unknown
6:53 AM -0.0 °F - -0.9 °F 96% 30.10 in - Calm Calm - N/A   Unknown
7:53 AM - - - N/A% 30.12 in 10.0 mi SSE 3.5 mph - N/A   Mostly Cloudy
8:53 AM - - - N/A% 30.14 in 10.0 mi Calm Calm - N/A   Mostly Cloudy
9:53 AM 82.0 °F - 78.1 °F 88% 30.14 in 10.0 mi Calm Calm - N/A   Mostly Cloudy
10:53 AM 82.9 °F - 77.0 °F 82% 30.15 in 10.0 mi South 4.6 mph - N/A   Mostly Cloudy
11:53 AM 82.9 °F - 77.0 °F 82% 30.15 in 10.0 mi South 6.9 mph - N/A   Mostly Cloudy
12:53 PM 86.0 °F - 78.1 °F 77% 30.14 in 10.0 mi South 16.1 mph - N/A   Mostly Cloudy
1:53 PM 87.1 °F - 78.1 °F 74% 30.13 in 10.0 mi SSE 11.5 mph - N/A   Mostly Cloudy
2:53 PM 87.1 °F - 78.1 °F 74% 30.12 in - North - - N/A   Unknown
4:53 PM 86.0 °F - 75.9 °F 72% 30.09 in - SE 12.7 mph - N/A   Unknown
5:53 PM 84.9 °F - 75.9 °F 74% 30.08 in 9.0 mi SE 9.2 mph - N/A   Unknown
6:53 PM 84.9 °F - 75.0 °F 72% 30.07 in 9.0 mi SE 11.5 mph - N/A   Unknown
7:53 PM 84.0 °F - 75.0 °F 74% 30.11 in 8.0 mi SE 6.9 mph - N/A   Unknown
8:53 PM 84.0 °F - 75.0 °F 74% 30.12 in 10.0 mi ESE 3.5 mph - N/A   Unknown
9:53 PM 84.0 °F - 75.0 °F 74% 30.14 in 9.0 mi Calm Calm - N/A   Unknown
10:53 PM - - - N/A% 30.17 in 9.0 mi ENE 5.8 mph - N/A   Unknown
11:53 PM - - - N/A% 30.16 in 9.0 mi East 4.6 mph - N/A   Unknown